| time (UTC) | temp C | wind direction | speed KPH | gust KPH | rain 1hr cm | rain 24hr cm | rain mn cm | humidity % | barometer mb |
| 20260504041759 | 7 | 260 | 0.0 | 0.0 | 0.00 | 0.00 | 0.00 | 68 | 1014.1 |
| 20260504041255 | 8 | 262 | 0.0 | 0.0 | 0.00 | 0.00 | 0.00 | 67 | 1014.3 |
| 20260504040751 | 8 | 257 | 1.6 | 1.6 | 0.00 | 0.00 | 0.00 | 65 | 1014.1 |
| 20260504040249 | 7 | 257 | 0.0 | 0.0 | 0.00 | 0.00 | 0.00 | 66 | 1014.2 |
| 20260504035744 | 7 | 253 | 1.6 | 1.6 | 0.00 | 0.00 | 0.00 | 66 | 1014.3 |
| 20260504035242 | 8 | 260 | 0.0 | 0.0 | 0.00 | 0.00 | 0.00 | 67 | 1014.1 |
| 20260504034740 | 7 | 252 | 1.6 | 3.2 | 0.00 | 0.00 | 0.00 | 66 | 1014.4 |
| 20260504034237 | 7 | 265 | 0.0 | 0.0 | 0.00 | 0.00 | 0.00 | 65 | 1014.3 |
| 20260504033734 | 7 | 266 | 0.0 | 0.0 | 0.00 | 0.00 | 0.00 | 65 | 1014.1 |
| 20260504033231 | 7 | 268 | 0.0 | 0.0 | 0.00 | 0.00 | 0.00 | 64 | 1014.1 |
| 20260504032728 | 7 | 264 | 0.0 | 0.0 | 0.00 | 0.00 | 0.00 | 64 | 1014.1 |
| 20260504032226 | 7 | 264 | 0.0 | 0.0 | 0.00 | 0.00 | 0.00 | 64 | 1014.1 |
| 20260504031722 | 7 | 264 | 0.0 | 0.0 | 0.00 | 0.00 | 0.00 | 64 | 1014.0 |
| 20260504031220 | 7 | 268 | 0.0 | 0.0 | 0.00 | 0.00 | 0.00 | 64 | 1014.1 |
| 20260504030715 | 7 | 266 | 0.0 | 0.0 | 0.00 | 0.00 | 0.00 | 63 | 1014.2 |
| 20260504030213 | 8 | 269 | 0.0 | 0.0 | 0.00 | 0.00 | 0.00 | 64 | 1014.2 |
| 20260504025709 | 8 | 267 | 0.0 | 0.0 | 0.00 | 0.00 | 0.00 | 64 | 1014.3 |
| 20260504025206 | 8 | 265 | 0.0 | 0.0 | 0.00 | 0.00 | 0.00 | 63 | 1014.4 |
| 20260504024703 | 8 | 275 | 1.6 | 1.6 | 0.00 | 0.00 | 0.00 | 63 | 1014.2 |
| 20260504024159 | 8 | 263 | 0.0 | 1.6 | 0.00 | 0.00 | 0.00 | 62 | 1014.3 |
| 20260504023656 | 8 | 278 | 1.6 | 1.6 | 0.00 | 0.00 | 0.00 | 63 | 1014.5 |
| 20260504023152 | 8 | 271 | 0.0 | 0.0 | 0.00 | 0.00 | 0.00 | 63 | 1014.3 |
| 20260504022649 | 8 | 269 | 0.0 | 0.0 | 0.00 | 0.00 | 0.00 | 63 | 1014.5 |
| 20260504022144 | 8 | 268 | 1.6 | 1.6 | 0.00 | 0.00 | 0.00 | 63 | 1014.7 |
| 20260504021643 | 8 | 265 | 0.0 | 0.0 | 0.00 | 0.00 | 0.00 | 64 | 1014.6 |
| 20260504021139 | 8 | 266 | 1.6 | 1.6 | 0.00 | 0.00 | 0.00 | 63 | 1014.7 |
| 20260504020636 | 8 | 270 | 1.6 | 1.6 | 0.00 | 0.00 | 0.00 | 63 | 1014.4 |
| 20260504020132 | 8 | 266 | 0.0 | 0.0 | 0.00 | 0.00 | 0.00 | 62 | 1014.5 |
| 20260504015629 | 8 | 273 | 1.6 | 1.6 | 0.00 | 0.00 | 0.00 | 63 | 1014.7 |
| 20260504015125 | 8 | 265 | 0.0 | 0.0 | 0.00 | 0.00 | 0.00 | 64 | 1014.3 |
| 20260504014621 | 8 | 276 | 1.6 | 1.6 | 0.00 | 0.00 | 0.00 | 64 | 1014.5 |
| 20260504014118 | 8 | 261 | 0.0 | 0.0 | 0.00 | 0.00 | 0.00 | 66 | 1014.5 |
| 20260504013616 | 8 | 267 | 0.0 | 0.0 | 0.00 | 0.00 | 0.00 | 63 | 1014.4 |
| 20260504013113 | 8 | 274 | 1.6 | 1.6 | 0.00 | 0.00 | 0.00 | 63 | 1014.4 |
| 20260504012610 | 8 | 268 | 0.0 | 1.6 | 0.00 | 0.00 | 0.00 | 62 | 1014.6 |
| 20260504012108 | 9 | 268 | 0.0 | 1.6 | 0.00 | 0.00 | 0.00 | 61 | 1014.2 |
| 20260504011604 | 9 | 268 | 0.0 | 1.6 | 0.00 | 0.00 | 0.00 | 59 | 1014.3 |
| 20260504011101 | 9 | 270 | 0.0 | 1.6 | 0.00 | 0.00 | 0.00 | 60 | 1014.4 |
| 20260504010556 | 10 | 266 | 0.0 | 0.0 | 0.00 | 0.00 | 0.00 | 57 | 1014.3 |
| 20260504010053 | 10 | 264 | 0.0 | 0.0 | 0.00 | 0.00 | 0.00 | 56 | 1014.3 |
| 20260504005549 | 10 | 264 | 0.0 | 0.0 | 0.00 | 0.00 | 0.00 | 55 | 1014.2 |
| 20260504005047 | 10 | 264 | 0.0 | 0.0 | 0.00 | 0.00 | 0.00 | 54 | 1014.1 |
| 20260504004544 | 10 | 264 | 0.0 | 0.0 | 0.00 | 0.00 | 0.00 | 54 | 1014.3 |
| 20260504004041 | 10 | 265 | 0.0 | 0.0 | 0.00 | 0.00 | 0.00 | 52 | 1014.1 |
| 20260504003537 | 10 | 266 | 0.0 | 0.0 | 0.00 | 0.00 | 0.00 | 52 | 1014.3 |
| 20260504003034 | 11 | 265 | 0.0 | 0.0 | 0.00 | 0.00 | 0.00 | 51 | 1014.1 |
| 20260504002531 | 11 | 270 | 1.6 | 1.6 | 0.00 | 0.00 | 0.00 | 52 | 1014.3 |
| 20260504002029 | 11 | 263 | 0.0 | 0.0 | 0.00 | 0.00 | 0.00 | 51 | 1014.3 |
| 20260504001526 | 11 | 267 | 0.0 | 0.0 | 0.00 | 0.00 | 0.00 | 51 | 1013.8 |
| 20260504001022 | 11 | 260 | 0.0 | 0.0 | 0.00 | 0.00 | 0.00 | 51 | 1014.0 |
| 20260504000520 | 12 | 259 | 0.0 | 0.0 | 0.00 | 0.00 | 0.00 | 50 | 1014.0 |
| 20260504000017 | 12 | 259 | 0.0 | 0.0 | 0.00 | 0.00 | 0.00 | 48 | 1014.2 |
| 20260503235515 | 12 | 251 | 0.0 | 1.6 | 0.00 | 0.00 | 0.00 | 48 | 1014.1 |
| 20260503235012 | 12 | 248 | 1.6 | 3.2 | 0.00 | 0.00 | 0.00 | 47 | 1014.1 |
| 20260503234509 | 12 | 262 | 0.0 | 0.0 | 0.00 | 0.00 | 0.00 | 47 | 1014.1 |
| 20260503234008 | 12 | 253 | 1.6 | 1.6 | 0.00 | 0.00 | 0.00 | 46 | 1014.2 |
| 20260503233503 | 12 | 258 | 1.6 | 1.6 | 0.00 | 0.00 | 0.00 | 46 | 1014.2 |
| 20260503233000 | 13 | 224 | 3.2 | 3.2 | 0.00 | 0.00 | 0.00 | 45 | 1014.2 |
| 20260503232457 | 13 | 257 | 1.6 | 1.6 | 0.00 | 0.00 | 0.00 | 44 | 1014.1 |
| 20260503231955 | 13 | 253 | 1.6 | 3.2 | 0.00 | 0.00 | 0.00 | 43 | 1014.1 |
| 20260503231452 | 13 | 254 | 3.2 | 3.2 | 0.00 | 0.00 | 0.00 | 44 | 1014.3 |
| 20260503230948 | 13 | 244 | 3.2 | 3.2 | 0.00 | 0.00 | 0.00 | 46 | 1014.1 |
| 20260503230445 | 13 | 261 | 0.0 | 0.0 | 0.00 | 0.00 | 0.00 | 43 | 1014.1 |
| 20260503225943 | 13 | 243 | 1.6 | 1.6 | 0.00 | 0.00 | 0.00 | 42 | 1014.2 |
| 20260503225439 | 13 | 224 | 4.8 | 4.8 | 0.00 | 0.00 | 0.00 | 43 | 1014.2 |
| 20260503224935 | 13 | 219 | 6.4 | 8.0 | 0.00 | 0.00 | 0.00 | 42 | 1014.1 |
| 20260503224432 | 13 | 219 | 4.8 | 4.8 | 0.00 | 0.00 | 0.00 | 41 | 1013.9 |
| 20260503223930 | 13 | 204 | 3.2 | 4.8 | 0.00 | 0.00 | 0.00 | 43 | 1014.1 |
| 20260503223427 | 13 | 190 | 6.4 | 9.7 | 0.00 | 0.00 | 0.00 | 41 | 1014.2 |
| 20260503222922 | 13 | 244 | 1.6 | 1.6 | 0.00 | 0.00 | 0.00 | 41 | 1014.3 |
| 20260503222421 | 13 | 219 | 0.0 | 3.2 | 0.00 | 0.00 | 0.00 | 42 | 1014.2 |
| 20260503221919 | 13 | 207 | 4.8 | 8.0 | 0.00 | 0.00 | 0.00 | 41 | 1014.3 |
| 20260503221417 | 13 | 246 | 1.6 | 1.6 | 0.00 | 0.00 | 0.00 | 41 | 1014.2 |
| 20260503220914 | 13 | 249 | 3.2 | 3.2 | 0.00 | 0.00 | 0.00 | 41 | 1014.3 |
| 20260503220410 | 13 | 242 | 1.6 | 3.2 | 0.00 | 0.00 | 0.00 | 41 | 1014.3 |
| 20260503215907 | 13 | 213 | 4.8 | 4.8 | 0.00 | 0.00 | 0.00 | 42 | 1014.4 |
| 20260503215404 | 13 | 240 | 3.2 | 3.2 | 0.00 | 0.00 | 0.00 | 42 | 1014.3 |
| 20260503214902 | 14 | 242 | 1.6 | 3.2 | 0.00 | 0.00 | 0.00 | 41 | 1014.2 |
| 20260503214359 | 14 | 248 | 3.2 | 3.2 | 0.00 | 0.00 | 0.00 | 41 | 1014.3 |
| 20260503213856 | 14 | 233 | 1.6 | 3.2 | 0.00 | 0.00 | 0.00 | 41 | 1014.1 |
| 20260503213354 | 13 | 237 | 3.2 | 3.2 | 0.00 | 0.00 | 0.00 | 42 | 1014.4 |
| 20260503212850 | 14 | 223 | 4.8 | 4.8 | 0.00 | 0.00 | 0.00 | 42 | 1014.1 |
| 20260503212348 | 14 | 209 | 6.4 | 9.7 | 0.00 | 0.00 | 0.00 | 42 | 1014.1 |
| 20260503211845 | 14 | 208 | 6.4 | 8.0 | 0.00 | 0.00 | 0.00 | 41 | 1014.1 |
| 20260503211342 | 14 | 247 | 3.2 | 3.2 | 0.00 | 0.00 | 0.00 | 41 | 1014.3 |
| 20260503210837 | 15 | 215 | 9.7 | 12.9 | 0.00 | 0.00 | 0.00 | 42 | 1014.2 |
| 20260503210335 | 14 | 236 | 1.6 | 3.2 | 0.00 | 0.00 | 0.00 | 42 | 1014.1 |
| 20260503205829 | 15 | 249 | 1.6 | 1.6 | 0.00 | 0.00 | 0.00 | 41 | 1014.4 |
| 20260503205326 | 14 | 249 | 4.8 | 4.8 | 0.00 | 0.00 | 0.00 | 42 | 1014.3 |
| 20260503204823 | 14 | 249 | 3.2 | 3.2 | 0.00 | 0.00 | 0.00 | 40 | 1014.3 |
| 20260503204321 | 14 | 269 | 3.2 | 3.2 | 0.00 | 0.00 | 0.00 | 42 | 1014.5 |
| 20260503203818 | 14 | 229 | 4.8 | 4.8 | 0.00 | 0.00 | 0.00 | 41 | 1014.8 |
| 20260503203315 | 14 | 194 | 4.8 | 8.0 | 0.00 | 0.00 | 0.00 | 41 | 1014.3 |
| 20260503202812 | 15 | 228 | 6.4 | 8.0 | 0.00 | 0.00 | 0.00 | 39 | 1014.7 |
| 20260503202310 | 14 | 236 | 1.6 | 1.6 | 0.00 | 0.00 | 0.00 | 40 | 1014.8 |
| 20260503201808 | 15 | 237 | 9.7 | 12.9 | 0.00 | 0.00 | 0.00 | 40 | 1014.7 |
| 20260503201304 | 15 | 186 | 9.7 | 12.9 | 0.00 | 0.00 | 0.00 | 42 | 1014.8 |
| 20260503200802 | 15 | 241 | 3.2 | 3.2 | 0.00 | 0.00 | 0.00 | 40 | 1014.8 |
| 20260503200257 | 15 | 195 | 9.7 | 11.3 | 0.00 | 0.00 | 0.00 | 39 | 1014.8 |
| 20260503195755 | 15 | 249 | 3.2 | 3.2 | 0.00 | 0.00 | 0.00 | 39 | 1014.9 |
| 20260503195251 | 15 | 215 | 0.0 | 0.0 | 0.00 | 0.00 | 0.00 | 40 | 1015.1 |
| 20260503194749 | 14 | 247 | 1.6 | 1.6 | 0.00 | 0.00 | 0.00 | 40 | 1015.1 |
| 20260503194245 | 14 | 225 | 4.8 | 4.8 | 0.00 | 0.00 | 0.00 | 42 | 1015.3 |
| 20260503193741 | 15 | 235 | 4.8 | 4.8 | 0.00 | 0.00 | 0.00 | 40 | 1015.3 |
| 20260503193237 | 15 | 212 | 6.4 | 8.0 | 0.00 | 0.00 | 0.00 | 41 | 1015.4 |
| 20260503192733 | 15 | 248 | 1.6 | 1.6 | 0.00 | 0.00 | 0.00 | 41 | 1015.5 |
| 20260503192228 | 14 | 251 | 4.8 | 4.8 | 0.00 | 0.00 | 0.00 | 40 | 1015.5 |
| 20260503191725 | 13 | 205 | 8.0 | 8.0 | 0.00 | 0.00 | 0.00 | 41 | 1015.5 |
| 20260503191222 | 13 | 197 | 4.8 | 4.8 | 0.00 | 0.00 | 0.00 | 44 | 1015.6 |
| 20260503190719 | 14 | 189 | 12.9 | 17.7 | 0.00 | 0.00 | 0.00 | 42 | 1015.8 |
| 20260503190216 | 14 | 260 | 3.2 | 3.2 | 0.00 | 0.00 | 0.00 | 42 | 1015.8 |
| 20260503185713 | 14 | 192 | 12.9 | 16.1 | 0.00 | 0.00 | 0.00 | 41 | 1016.2 |
| 20260503185208 | 13 | 190 | 6.4 | 9.7 | 0.00 | 0.00 | 0.00 | 42 | 1016.2 |
| 20260503184703 | 13 | 277 | 1.6 | 1.6 | 0.00 | 0.00 | 0.00 | 44 | 1016.2 |
| 20260503184200 | 13 | 263 | 0.0 | 0.0 | 0.00 | 0.00 | 0.00 | 44 | 1016.1 |
| 20260503183656 | 13 | 224 | 1.6 | 3.2 | 0.00 | 0.00 | 0.00 | 42 | 1016.3 |
| 20260503183154 | 14 | 222 | 6.4 | 8.0 | 0.00 | 0.00 | 0.00 | 43 | 1016.5 |
| 20260503182652 | 13 | 210 | 6.4 | 9.7 | 0.00 | 0.00 | 0.00 | 45 | 1016.3 |
| 20260503182150 | 13 | 246 | 4.8 | 8.0 | 0.00 | 0.00 | 0.00 | 43 | 1016.5 |
| 20260503181646 | 13 | 232 | 3.2 | 3.2 | 0.00 | 0.00 | 0.00 | 44 | 1016.4 |
| 20260503181143 | 12 | 226 | 1.6 | 4.8 | 0.00 | 0.00 | 0.00 | 45 | 1016.5 |
| 20260503180640 | 13 | 190 | 11.3 | 12.9 | 0.00 | 0.00 | 0.00 | 42 | 1016.4 |
| 20260503180138 | 13 | 253 | 3.2 | 4.8 | 0.00 | 0.00 | 0.00 | 42 | 1016.5 |
| 20260503175635 | 13 | 196 | 4.8 | 8.0 | 0.00 | 0.00 | 0.00 | 41 | 1016.7 |
| 20260503175132 | 13 | 210 | 4.8 | 4.8 | 0.00 | 0.00 | 0.00 | 43 | 1016.7 |
| 20260503174628 | 12 | 195 | 6.4 | 8.0 | 0.00 | 0.00 | 0.00 | 42 | 1016.7 |
| 20260503174126 | 12 | 233 | 4.8 | 4.8 | 0.00 | 0.00 | 0.00 | 42 | 1016.9 |
| 20260503173621 | 12 | 261 | 0.0 | 1.6 | 0.00 | 0.00 | 0.00 | 43 | 1016.8 |
| 20260503173117 | 13 | 280 | 3.2 | 3.2 | 0.00 | 0.00 | 0.00 | 42 | 1016.8 |
| 20260503172614 | 13 | 206 | 3.2 | 8.0 | 0.00 | 0.00 | 0.00 | 42 | 1017.1 |
| 20260503172112 | 13 | 206 | 4.8 | 4.8 | 0.00 | 0.00 | 0.00 | 41 | 1017.0 |
| 20260503171609 | 13 | 242 | 8.0 | 11.3 | 0.00 | 0.00 | 0.00 | 40 | 1017.0 |
| 20260503171106 | 13 | 199 | 9.7 | 12.9 | 0.00 | 0.00 | 0.00 | 41 | 1016.8 |
| 20260503170602 | 13 | 260 | 3.2 | 4.8 | 0.00 | 0.00 | 0.00 | 42 | 1017.1 |
| 20260503150954 | 10 | 169 | 4.8 | 4.8 | 0.00 | 0.00 | 0.00 | 46 | 1018.1 |
| 20260503150451 | 10 | 251 | 1.6 | 3.2 | 0.00 | 0.00 | 0.00 | 48 | 1017.8 |
| 20260503131344 | 6 | 261 | 0.0 | 1.6 | 0.00 | 0.00 | 0.00 | 67 | 1018.3 |
| 20260503130841 | 6 | 257 | 3.2 | 3.2 | 0.00 | 0.00 | 0.00 | 68 | 1018.4 |
| 20260503130339 | 6 | 240 | 0.0 | 1.6 | 0.00 | 0.00 | 0.00 | 68 | 1018.5 |
| 20260503110732 | 0 | 262 | 0.0 | 0.0 | 0.00 | 0.00 | 0.00 | 94 | 1017.8 |
| 20260503110230 | 0 | 262 | 0.0 | 0.0 | 0.00 | 0.00 | 0.00 | 94 | 1017.8 |
| 20260503100156 | 0 | 265 | 0.0 | 0.0 | 0.00 | 0.00 | 0.00 | 93 | 1017.0 |
| 20260503090115 | 0 | 266 | 0.0 | 0.0 | 0.00 | 0.00 | 0.00 | 92 | 1016.8 |
| 20260503081550 | 1 | 263 | 0.0 | 0.0 | 0.00 | 0.00 | 0.00 | 90 | 1016.6 |
| 20260503081048 | 1 | 262 | 0.0 | 0.0 | 0.00 | 0.00 | 0.00 | 90 | 1016.9 |
| 20260503080544 | 1 | 262 | 0.0 | 0.0 | 0.00 | 0.00 | 0.00 | 90 | 1016.9 |
| 20260503072518 | 1 | 262 | 0.0 | 0.0 | 0.00 | 0.00 | 0.00 | 90 | 1016.4 |
| 20260503072015 | 1 | 261 | 0.0 | 0.0 | 0.00 | 0.00 | 0.00 | 90 | 1016.5 |
| 20260503071512 | 1 | 262 | 0.0 | 0.0 | 0.00 | 0.00 | 0.00 | 91 | 1016.5 |
| 20260503071008 | 1 | 264 | 0.0 | 0.0 | 0.00 | 0.00 | 0.00 | 91 | 1016.6 |
| 20260503070505 | 1 | 265 | 0.0 | 0.0 | 0.00 | 0.00 | 0.00 | 91 | 1016.6 |
| 20260503054929 | 1 | 265 | 0.0 | 0.0 | 0.00 | 0.00 | 0.00 | 90 | 1016.7 |
| 20260503054425 | 1 | 264 | 0.0 | 0.0 | 0.00 | 0.00 | 0.00 | 90 | 1016.4 |
| 20260503053923 | 1 | 264 | 0.0 | 0.0 | 0.00 | 0.00 | 0.00 | 90 | 1016.7 |
| 20260503053421 | 1 | 265 | 0.0 | 0.0 | 0.00 | 0.00 | 0.00 | 90 | 1016.5 |
| 20260503052916 | 1 | 264 | 0.0 | 0.0 | 0.00 | 0.00 | 0.00 | 90 | 1016.7 |
| 20260503052414 | 1 | 265 | 0.0 | 0.0 | 0.00 | 0.00 | 0.00 | 90 | 1016.8 |
| 20260503051910 | 1 | 266 | 0.0 | 0.0 | 0.00 | 0.00 | 0.00 | 90 | 1016.7 |
| 20260503051406 | 1 | 265 | 0.0 | 0.0 | 0.00 | 0.00 | 0.00 | 90 | 1016.7 |
| 20260503050904 | 1 | 265 | 0.0 | 0.0 | 0.00 | 0.00 | 0.00 | 90 | 1016.8 |
| 20260503050359 | 1 | 268 | 0.0 | 0.0 | 0.00 | 0.00 | 0.00 | 90 | 1016.8 |
| 20260503045857 | 1 | 265 | 0.0 | 0.0 | 0.00 | 0.00 | 0.00 | 90 | 1016.7 |
| 20260503045354 | 1 | 264 | 0.0 | 0.0 | 0.00 | 0.00 | 0.00 | 90 | 1016.8 |
| 20260503044851 | 1 | 265 | 0.0 | 0.0 | 0.00 | 0.00 | 0.00 | 89 | 1016.9 |
| 20260503044348 | 1 | 268 | 0.0 | 0.0 | 0.00 | 0.00 | 0.00 | 89 | 1016.7 |
| 20260503043845 | 1 | 265 | 0.0 | 0.0 | 0.00 | 0.00 | 0.00 | 89 | 1016.8 |
| 20260503043342 | 1 | 275 | 0.0 | 0.0 | 0.00 | 0.00 | 0.00 | 89 | 1016.9 |
| 20260503042838 | 1 | 264 | 0.0 | 0.0 | 0.00 | 0.00 | 0.00 | 89 | 1016.8 |
| 20260503042335 | 1 | 273 | 0.0 | 1.6 | 0.00 | 0.00 | 0.00 | 88 | 1016.9 |